YAOGAN-31 H (47693 NORAD) Tracking and Keplerian Element Data

This shows tracking and keplerian element data for the satellite.

Feedback or suggestion? Click here.




ElementValue
Catalog47693
NameYAOGAN-31 H
Epoch Orbit599
Epoch Day99.80408984
Epoch Year2021
RAAN23.5498
Inclination63.411
Eccentricity0.0010835
Argument of Perigee307.2554
Mean Anonmoly52.7489
Mean Motion13.45207159
Decay Rate-9E-07
L11 47693U 21014C 21099.80408984 -.00000090 00000-0 00000-0 0 9999
L22 47693 63.4110 23.5498 0010835 307.2554 52.7489 13.45207159 5995

Live tracking and technical data element details for YAOGAN-31 H (NORAD 47693). YAOGAN-31 H can be tracked NOW for your location showing map with azimuth and elevation plus other details from your city location.

Track the satellite on the map from your city or location and see movement details for azimuth, elevation, latitude, longitude, range, height, and movement on the map or in text.







IsCatalogInMostPopularTable: catalog: 47693, numindb: 14
Update: records affected: 1



GetName: 47693 YAOGAN-31 H

Hit Count: updated at: Sat, 10 Apr 2021 19:27:45 GMT